Location: Cazarilh
(42.9578°N, 0.5819°E)
Time: 02:52:20
(UTC+00:00)

Cosmos 1627 Rocket - Pass Details

Date: 11 December 2019
Orbit: 951 x 1003 km, 82.9° (Epoch: 17 January)

Event Time Altitude Azimuth Distance (km) Brightness Sun altitude
Rises 05:16:20 0° 351° (N) 3,674 7.3 -21.5°
Reaches altitude 10° 05:18:50 10° 350° (N) 2,730 6.6 -21.1°
Maximum altitude 05:25:05 80° 265° (W) 1,003 4.4 -19.9°
Drops below altitude 10° 05:31:24 10° 179° (S) 2,747 7.0 -18.8°
Sets 05:33:55 0° 178° (S) 3,698 7.7 -18.4°
